Wind_Speed
31 30 30 31 32 31 31 30 28 26 24 23 22 19 18 17 17 17 16 15 15 15 14 15 15 15 15 15 15 15 15 15 14 14 14 14 14 15 15 16 16 15 15 15
31 31 31 32 32 31 31 31 29 28 27 24 22 21 20 19 18 18 18 17 16 16 16 16 16 16 15 15 16 16 16 16 16 15 16 16 17 17 18 18 18 18 17 16
30 31 31 33 32 32 31 31 30 28 27 25 23 22 21 20 20 19 19 19 18 17 18 18 18 17 16 16 17 17 17 18 18 18 18 19 19 19 20 20 19 19 19 19
29 30 32 33 32 32 32 31 30 29 28 26 24 23 22 21 20 20 20 20 20 19 19 19 19 18 18 18 19 19 19 19 19 19 20 20 20 21 21 21 21 20 19 19
30 30 30 31 32 32 31 31 30 29 28 26 24 23 23 22 21 21 20 20 20 21 21 21 21 21 20 20 21 21 21 20 20 21 21 22 23 22 22 21 21 20 19 20
29 27 27 28 29 29 29 30 29 29 27 26 26 26 24 23 23 22 21 21 22 22 22 22 22 22 22 23 22 22 22 22 22 22 22 23 24 23 23 22 22 22 21 21
28 27 26 27 27 27 28 29 28 28 28 28 27 27 25 24 24 24 22 22 23 23 24 24 24 24 24 23 22 22 23 23 23 24 25 25 24 23 24 24 24 24 23 23
27 27 27 27 27 28 27 27 26 26 27 27 28 28 26 25 24 24 24 24 24 24 25 25 25 25 25 25 24 24 25 25 25 24 25 25 24 25 25 25 26 25 25 25
28 28 28 28 28 27 26 26 26 26 27 27 28 28 27 27 26 26 26 26 26 26 27 27 27 27 27 26 26 26 27 27 26 26 26 26 26 26 26 27 27 26 26 26
28 28 28 28 28 27 26 26 26 27 27 27 27 27 27 28 28 27 27 27 27 28 28 28 29 29 29 28 28 29 29 29 28 28 28 28 27 27 28 28 28 27 27 27
28 28 28 28 28 28 28 27 28 28 28 27 27 27 27 28 29 29 29 29 29 30 30 30 30 31 31 30 30 30 30 30 30 30 30 29 29 29 29 29 28 28 27 28
27 27 28 28 28 28 29 28 28 28 28 27 27 27 28 29 30 30 30 30 31 31 32 32 32 32 31 31 32 32 31 31 31 32 32 31 31 30 30 30 29 29 29 29
27 28 29 29 28 28 28 28 28 28 28 27 27 28 29 29 30 30 30 30 31 31 32 32 32 32 32 32 33 32 31 32 32 33 32 32 31 31 31 30 30 30 31 31
26 27 27 28 28 28 28 27 27 28 27 27 28 28 28 29 29 29 29 30 30 31 32 32 32 32 33 34 34 34 33 33 33 33 33 34 33 33 32 32 31 31 32 32
26 27 27 27 27 28 28 27 27 27 27 27 27 27 27 28 28 28 29 30 31 32 33 33 32 33 33 34 34 34 33 33 34 34 34 34 34 34 34 33 32 32 32 32
25 25 25 26 27 28 28 28 28 28 28 27 27 27 27 28 28 28 28 29 30 31 32 32 32 33 34 34 34 34 34 34 34 34 34 34 35 35 35 34 33 32 32 32
23 22 23 24 25 25 26 27 27 27 27 27 27 28 28 28 29 29 30 30 31 31 32 32 32 32 33 33 32 33 33 34 34 34 34 34 34 34 33 32 32 31 32 32
20 21 20 21 23 24 25 26 26 27 27 27 27 28 29 29 29 30 30 31 31 31 31 31 31 32 32 33 33 32 32 33 33 34 34 33 32 32 31 32 32 32 31 31
20 21 21 21 23 24 25 26 26 26 26 26 27 27 28 29 29 29 30 31 31 32 32 33 33 33 33 33 33 33 33 33 33 33 33 33 32 32 32 32 32 32 32 31
18 19 20 21 21 22 23 25 25 26 26 26 26 27 28 28 29 30 31 31 32 33 33 33 33 32 32 33 32 32 32 32 32 32 32 32 32 32 32 32 32 32 31 31
17 18 18 20 21 21 21 22 23 24 25 25 26 27 27 27 28 29 30 31 31 31 31 32 32 32 32 31 30 30 30 30 31 31 32 32 31 32 32 32 32 32 32 32
16 18 19 19 20 20 20 20 21 22 23 24 25 25 25 26 27 28 28 29 29 29 30 30 30 29 29 30 31 30 30 30 31 31 31 30 31 31 31 31 32 32 31 31
17 18 18 18 19 19 20 20 21 21 22 23 24 25 25 26 27 28 28 28 29 29 30 30 29 29 29 29 29 29 29 30 30 30 30 29 29 30 30 30 31 31 30 30
17 17 18 18 18 19 19 20 21 22 22 23 23 24 25 26 26 27 28 29 29 30 30 30 30 30 29 29 28 28 29 29 29 29 30 29 29 29 29 29 30 30 30 30
16 16 17 18 19 19 20 21 21 21 22 22 22 23 23 25 26 26 27 27 28 28 29 29 29 29 28 28 28 28 28 29 29 29 29 29 28 28 29 29 29 30 30 29
15 15 16 16 17 17 18 19 19 19 20 21 21 22 22 23 23 24 24 25 26 26 26 27 27 27 27 27 27 27 27 28 28 28 29 28 28 28 28 28 28 29 29 29
14 15 15 16 17 17 17 17 18 19 20 21 21 22 22 23 23 24 24 25 25 25 25 26 26 27 27 28 27 27 27 28 28 28 28 28 28 29 28 28 28 28 28 28
Wind_Direction
228 230 232 234 232 231 231 232 237 242 243 244 246 249 252 253 255 257 259 261 265 266 269 273 274 277 278 276 277 278 282 281 280 286 290 292 297 301 303 305 307 301 299 301
231 231 231 232 231 232 233 234 237 240 242 244 247 249 251 252 254 256 259 261 264 266 267 270 274 275 274 273 276 276 278 279 278 282 287 291 296 300 302 302 303 305 301 299
232 232 233 232 230 230 233 235 237 239 241 243 245 247 249 251 253 257 259 260 261 263 264 269 272 271 271 274 276 276 276 277 278 279 284 287 291 295 299 300 300 302 305 299
231 233 235 234 232 232 234 235 237 238 240 242 244 245 246 248 252 257 258 259 259 259 262 267 267 269 271 274 276 276 277 279 283 283 285 288 292 296 298 299 299 299 301 301
229 234 237 236 232 232 234 235 237 238 239 242 243 245 245 247 250 255 258 259 258 258 260 262 265 268 270 272 273 275 276 279 281 286 288 292 290 291 295 296 297 297 297 298
227 229 233 235 232 232 235 238 236 239 240 240 242 243 245 248 250 254 255 256 257 259 261 262 264 266 269 270 272 274 277 280 281 285 287 289 290 290 292 294 295 293 293 294
227 229 232 233 232 231 235 238 239 241 242 240 240 242 245 250 253 252 253 254 257 260 263 264 265 266 268 268 270 273 277 279 281 284 285 285 287 288 289 292 292 293 295 295
229 230 234 235 234 235 237 240 241 243 243 242 242 243 245 249 252 251 251 253 257 261 264 265 266 266 267 268 270 272 275 278 281 283 286 287 288 288 291 292 293 293 294 295
228 231 235 236 237 238 240 241 242 243 244 245 246 247 248 249 250 251 252 255 258 261 262 263 264 265 266 268 270 272 274 276 279 281 283 286 288 288 290 291 291 292 293 294
230 232 235 238 240 241 241 241 243 244 244 246 248 249 250 250 250 251 252 255 259 261 261 263 264 266 266 268 271 272 273 275 276 278 280 284 286 287 289 290 290 291 291 293
230 232 235 238 241 242 241 243 245 246 246 247 249 249 250 251 250 250 252 255 259 261 262 264 266 267 267 269 270 272 273 274 275 277 279 282 284 284 286 288 289 289 290 291
230 231 235 237 240 241 241 242 244 245 247 249 250 250 251 253 253 253 255 257 259 261 262 264 266 266 266 269 271 271 272 273 274 276 277 279 281 282 284 287 288 288 289 290
234 235 237 238 239 239 240 241 243 245 248 251 251 251 253 254 254 255 256 257 259 261 263 264 266 266 266 268 269 271 272 273 274 275 276 277 278 281 283 284 286 287 288 288
235 237 238 239 240 241 241 242 244 245 248 250 252 252 253 254 256 256 256 258 259 260 262 263 265 267 268 270 271 271 271 272 273 274 275 277 277 279 281 282 284 285 285 285
234 235 237 239 240 242 243 244 245 246 248 250 252 253 254 256 258 258 258 259 260 261 263 265 266 267 268 269 271 270 271 271 272 273 274 276 277 278 280 280 281 282 283 285
235 235 236 238 240 241 243 245 245 246 250 252 253 254 257 259 260 260 260 261 263 264 264 264 265 266 266 267 269 269 270 271 271 271 272 274 276 277 279 279 279 280 282 284
235 236 234 236 239 241 243 245 247 248 251 253 256 257 259 259 260 260 261 264 266 266 266 266 267 270 270 269 269 270 270 270 269 270 272 274 275 276 277 277 277 279 282 284
235 238 238 238 241 244 244 246 247 250 254 255 256 258 258 259 262 263 263 265 266 266 267 268 270 271 272 271 271 270 270 271 269 269 270 272 274 276 277 278 279 280 283 285
235 239 242 243 242 241 243 247 248 250 252 253 254 256 258 258 260 262 264 264 265 267 269 271 271 270 271 273 273 273 271 269 268 269 270 271 273 274 275 276 279 281 282 283
237 239 241 242 244 244 246 248 250 251 253 253 254 256 258 259 260 262 264 264 266 268 270 270 272 274 273 272 273 273 272 271 270 270 270 271 272 273 274 274 275 277 279 281
237 239 242 245 247 249 250 252 252 252 253 255 257 259 260 261 261 263 265 265 266 267 269 271 273 274 273 272 272 272 273 273 272 273 273 273 272 272 272 273 274 276 278 280
245 246 249 251 252 252 254 257 258 259 259 261 262 262 263 263 263 264 265 266 267 269 271 272 273 272 271 271 272 272 273 275 275 274 273 272 272 271 272 273 274 276 277 278
252 253 254 255 255 256 257 258 260 262 263 264 266 266 267 268 267 266 266 268 269 270 271 272 272 271 272 274 274 273 273 274 276 276 273 271 272 273 275 275 276 276 276 277
254 254 256 257 258 260 261 263 264 265 267 269 270 269 268 268 268 268 270 271 271 271 272 273 272 274 275 276 276 275 275 275 275 276 273 271 272 274 274 276 277 277 278 279
256 258 261 262 263 266 268 269 270 270 271 272 272 273 272 271 270 271 271 271 271 271 272 274 274 274 276 276 276 275 275 274 274 275 274 272 271 272 273 275 276 278 278 279
260 263 266 268 270 271 272 272 272 272 273 273 272 273 274 276 275 273 274 274 272 273 275 276 276 276 277 276 275 274 274 274 274 274 272 271 271 272 273 275 277 277 278 279
263 266 269 271 274 274 275 275 274 273 272 273 274 276 279 281 281 282 281 280 278 277 277 278 278 278 277 277 277 276 275 275 274 273 273 273 273 274 275 276 276 277 279 281
Height
5846 5850 5853 5857 5860 5864 5868 5872 5876 5880 5882 5884 5886 5888 5889 5890 5891 5892 5892 5893 5893 5893 5893 5893 5893 5892 5892 5892 5891 5891 5890 5890 5889 5888 5886 5885 5884 5882 5881 5879 5876 5873 5871 5871
5838 5842 5845 5849 5853 5857 5861 5865 5869 5873 5876 5878 5880 5882 5884 5885 5886 5887 5888 5888 5889 5889 5889 5889 5889 5888 5888 5888 5888 5887 5887 5886 5885 5884 5883 5881 5880 5879 5877 5875 5873 5870 5868 5866
5831 5835 5837 5841 5846 5850 5854 5858 5862 5865 5869 5872 5874 5876 5878 5880 5881 5882 5882 5883 5884 5884 5884 5884 5884 5884 5884 5884 5883 5883 5882 5882 5881 5880 5879 5878 5876 5874 5872 5870 5868 5866 5864 5862
5825 5828 5830 5836 5840 5843 5847 5851 5855 5858 5862 5865 5868 5870 5872 5874 5875 5876 5877 5877 5878 5879 5879 5880 5879 5880 5879 5879 5879 5878 5878 5877 5876 5875 5874 5872 5871 5869 5867 5865 5863 5861 5859 5857
5818 5820 5824 5828 5832 5836 5840 5844 5848 5851 5855 5859 5861 5864 5865 5867 5869 5870 5871 5872 5872 5873 5873 5874 5874 5874 5874 5874 5873 5873 5872 5872 5871 5870 5868 5867 5865 5864 5862 5860 5858 5855 5854 5852
5811 5815 5818 5822 5825 5829 5834 5836 5841 5844 5848 5851 5854 5857 5859 5861 5862 5864 5865 5866 5866 5867 5868 5868 5868 5868 5868 5868 5867 5867 5866 5866 5865 5864 5862 5861 5859 5857 5856 5854 5852 5850 5848 5846
5804 5808 5811 5814 5818 5823 5827 5831 5834 5837 5841 5844 5846 5850 5853 5854 5855 5857 5858 5859 5860 5861 5861 5862 5862 5862 5862 5862 5862 5861 5861 5860 5859 5857 5856 5854 5852 5851 5850 5848 5846 5844 5842 5840
5799 5803 5807 5808 5811 5816 5820 5824 5827 5830 5833 5836 5839 5842 5844 5846 5848 5850 5851 5852 5853 5854 5854 5855 5855 5855 5856 5855 5855 5855 5854 5853 5852 5851 5849 5847 5846 5844 5843 5841 5840 5838 5836 5834
5793 5797 5799 5802 5805 5809 5813 5817 5820 5823 5826 5829 5831 5834 5836 5839 5841 5842 5844 5845 5846 5846 5847 5847 5848 5848 5848 5848 5848 5848 5847 5846 5845 5844 5842 5841 5839 5837 5836 5834 5832 5830 5829 5827
5786 5790 5793 5796 5799 5802 5806 5810 5813 5816 5819 5822 5824 5827 5829 5831 5833 5834 5836 5837 5838 5839 5839 5840 5840 5840 5841 5840 5840 5840 5839 5838 5837 5836 5835 5833 5832 5830 5828 5827 5825 5823 5821 5819
5779 5783 5786 5789 5792 5796 5799 5803 5805 5808 5811 5814 5816 5818 5821 5822 5824 5826 5828 5829 5830 5830 5831 5831 5832 5832 5832 5831 5831 5831 5830 5830 5829 5827 5826 5825 5824 5822 5820 5819 5817 5815 5813 5811
5773 5777 5780 5783 5786 5789 5792 5795 5798 5801 5804 5806 5809 5811 5812 5814 5815 5817 5818 5819 5820 5821 5821 5822 5822 5822 5822 5822 5822 5822 5821 5821 5820 5819 5817 5816 5815 5814 5812 5810 5808 5807 5805 5803
5767 5770 5773 5776 5779 5782 5785 5788 5790 5793 5796 5798 5800 5802 5804 5805 5806 5808 5809 5810 5811 5812 5812 5812 5813 5813 5813 5813 5812 5812 5811 5811 5810 5809 5808 5807 5806 5804 5803 5802 5800 5798 5797 5795
5760 5763 5766 5769 5772 5775 5777 5780 5783 5785 5788 5790 5792 5793 5795 5796 5797 5798 5800 5801 5801 5802 5802 5802 5803 5803 5803 5803 5802 5802 5801 5801 5800 5799 5798 5797 5796 5795 5794 5793 5791 5789 5788 5786
5753 5756 5759 5762 5765 5767 5770 5773 5775 5777 5780 5782 5783 5785 5786 5787 5788 5790 5791 5791 5792 5792 5793 5793 5793 5793 5792 5792 5792 5791 5791 5790 5790 5789 5788 5787 5786 5785 5784 5783 5781 5780 5778 5777
5747 5750 5752 5755 5758 5760 5763 5765 5768 5770 5772 5773 5775 5776 5778 5779 5780 5781 5782 5782 5783 5783 5783 5783 5783 5783 5782 5781 5781 5780 5780 5780 5779 5779 5778 5777 5776 5775 5774 5773 5771 5770 5769 5767
5741 5744 5746 5748 5751 5753 5756 5758 5760 5762 5764 5766 5767 5769 5770 5771 5772 5773 5773 5774 5774 5774 5773 5773 5773 5773 5772 5771 5770 5770 5769 5769 5769 5768 5767 5767 5766 5765 5763 5763 5762 5761 5760 5758
5735 5738 5740 5743 5745 5747 5749 5751 5753 5755 5756 5758 5759 5760 5762 5763 5763 5764 5765 5765 5765 5765 5765 5764 5764 5763 5762 5760 5759 5759 5759 5758 5757 5757 5757 5756 5755 5755 5754 5753 5752 5751 5750 5748
5731 5733 5735 5737 5739 5741 5743 5745 5746 5748 5749 5750 5751 5752 5753 5754 5755 5755 5755 5756 5756 5756 5756 5755 5754 5754 5753 5751 5750 5749 5748 5748 5747 5747 5746 5746 5746 5745 5745 5744 5743 5742 5740 5739
5727 5729 5731 5732 5734 5735 5737 5738 5740 5741 5741 5742 5743 5744 5745 5745 5746 5746 5746 5747 5747 5746 5746 5745 5744 5744 5743 5742 5741 5740 5739 5738 5737 5737 5737 5737 5736 5735 5735 5734 5733 5732 5731 5729
5722 5724 5726 5727 5729 5730 5731 5732 5733 5733 5734 5735 5736 5736 5736 5736 5737 5737 5737 5738 5737 5737 5736 5736 5735 5734 5733 5732 5731 5731 5730 5729 5728 5727 5727 5727 5726 5726 5725 5724 5723 5722 5721 5720
5717 5719 5720 5722 5723 5724 5725 5725 5726 5727 5727 5727 5728 5728 5728 5728 5728 5728 5728 5728 5728 5727 5727 5726 5725 5724 5723 5723 5722 5722 5721 5720 5719 5718 5718 5717 5717 5716 5715 5714 5713 5712 5711 5710
5713 5714 5715 5716 5717 5718 5718 5719 5720 5720 5720 5720 5720 5720 5720 5720 5720 5720 5720 5719 5719 5719 5718 5718 5717 5716 5714 5713 5713 5712 5711 5711 5710 5709 5708 5708 5707 5706 5706 5705 5703 5702 5701 5699
5709 5709 5710 5711 5711 5712 5713 5713 5713 5713 5714 5713 5713 5713 5712 5712 5712 5711 5711 5711 5710 5710 5709 5708 5707 5706 5705 5703 5702 5702 5701 5701 5700 5699 5698 5697 5697 5696 5696 5695 5694 5692 5690 5689
5704 5705 5705 5706 5706 5706 5707 5707 5707 5707 5706 5706 5706 5705 5705 5704 5704 5703 5702 5701 5701 5700 5699 5698 5697 5696 5695 5694 5693 5692 5692 5691 5690 5689 5688 5687 5686 5686 5685 5684 5683 5682 5680 5679
5699 5700 5700 5700 5700 5701 5700 5700 5700 5700 5700 5699 5699 5698 5697 5696 5696 5695 5694 5693 5691 5690 5689 5689 5688 5687 5686 5685 5684 5682 5681 5681 5680 5679 5678 5677 5677 5676 5675 5674 5673 5672 5671 5670
5695 5695 5695 5695 5695 5695 5695 5694 5694 5694 5693 5693 5692 5691 5690 5689 5688 5687 5686 5684 5683 5682 5681 5680 5679 5678 5677 5676 5674 5673 5672 5671 5670 5669 5669 5668 5667 5666 5665 5665 5664 5663 5661 5660